Location: Spaichingen
(48.0400°N, 8.4300°E)
Time: 10:07:46
(UTC+01:00)

N. Korean satellite - Visible Passes

Search period start: 26 March 2019 00:00
Search period end: 05 April 2019 01:00
Orbit: 456 x 510 km, 97.2° (Epoch: 25 March)

Date Brightness Start Highest point End Pass type
(mag) Time Alt. Az. Time Alt. Az. Time Alt. Az.
26 Mar 10.1 05:35:17 10° ENE 05:37:04 13° E 05:38:52 10° ESE visible
30 Mar 10.3 05:29:45 10° ENE 05:31:06 12° E 05:32:27 10° ESE visible
03 Apr 10.6 06:24:37 10° E 06:25:05 10° E 06:25:33 10° E visible
